Weather History for K7L2 - April, 2014

Change the Weather History Date:

Saturday, April 26, 2014

  Actual Average (KBIS) Record (KBIS)
Temperature  
Mean Temperature 52 °F 48 °F  
Max Temperature 64 °F 62 °F 92 °F (1952)
Min Temperature 41 °F 35 °F 19 °F (2002)
Degree Days  
Heating Degree Days 12 17  
Month to date heating degree days 574  
Since 1 July heating degree days 8093  
Cooling Degree Days 0 0  
Month to date cooling degree days 0  
Year to date cooling degree days 0  
Growing Degree Days 2 (Base 50)    
Moisture  
Dew Point 38 °F    
Average Humidity 68    
Maximum Humidity 100    
Minimum Humidity 34    
Precipitation  
Precipitation 0.00 in 0.06 in 1.16 in (1964)
Month to date precipitation 1.04  
Year to date precipitation 2.85  
Snow  
Snow 0.00 in 0.10 in 4.20 in (1924)
Month to date snowfall 4.0  
Since 1 July snowfall 50.6  
Snow Depth -    
Sea Level Pressure  
Sea Level Pressure 29.72 in    
Wind  
Wind Speed 19 mph (ESE)    
Max Wind Speed 34 mph    
Max Gust Speed 44 mph    
Visibility 10 miles    
Events      
T = Trace of Precipitation, MM = Missing Value Source: NWS Daily Summary

Daily Weather History Graph

Daily Weather History Graph

Search for Another Location

Airport or City:

Trip Planner

Search our weather history database for the weather conditions in past years. The results will help you decide how hot, cold, wet, or windy it might be!

Date:

Astronomy

Apr. 26, 2014 Rise Set
Actual Time 6:35 AM CDT 8:43 PM CDT
Civil Twilight 6:02 AM CDT 9:15 PM CDT
Nautical Twilight 5:22 AM CDT 9:56 PM CDT
Astronomical Twilight 4:37 AM CDT 10:41 PM CDT
Moon 5:10 AM CDT (4/26) 6:05 PM CDT (4/26)
Length of Visible Light 15h 13m
Length of Day
14h 07m
Waning Crescent, 8% of the Moon is Illuminated
Apr 26
Waning Crescent
Apr 29
New
May 6
First Quarter
May 14
Full
May 21
Last Quarter

Hourly Weather History & Observations

Time (CDT) Temp. Windchill Dew Point Humidity Pressure Visibility Wind Dir Wind Speed Gust Speed Precip Events Conditions
12:15 AM 44.6 °F 38.1 °F 41.0 °F 87% 29.82 in 10.0 mi ESE 13.8 mph 19.6 mph N/A   Clear
12:35 AM 44.6 °F 37.8 °F 41.0 °F 87% 29.82 in 10.0 mi ESE 15.0 mph 19.6 mph N/A   Clear
12:55 AM 42.8 °F 34.8 °F 41.0 °F 93% 29.82 in 10.0 mi ESE 17.3 mph 24.2 mph N/A   Clear
1:15 AM 42.8 °F 35.4 °F 41.0 °F 93% 29.82 in 10.0 mi ESE 15.0 mph - N/A   Clear
1:35 AM 42.8 °F 34.8 °F 41.0 °F 93% 29.82 in 10.0 mi ESE 17.3 mph 21.9 mph N/A   Clear
1:55 AM 42.8 °F 35.1 °F 41.0 °F 93% 29.81 in 10.0 mi ESE 16.1 mph - N/A   Clear
2:15 AM 42.8 °F 35.1 °F 41.0 °F 93% 29.80 in 10.0 mi ESE 16.1 mph 21.9 mph N/A   Clear
2:35 AM 41.0 °F 32.8 °F 41.0 °F 100% 29.80 in 10.0 mi ESE 16.1 mph - N/A   Clear
2:55 AM 41.0 °F 33.1 °F 41.0 °F 100% 29.80 in 10.0 mi ESE 15.0 mph 21.9 mph N/A   Clear
3:15 AM 41.0 °F 32.8 °F 41.0 °F 100% 29.80 in 10.0 mi ESE 16.1 mph - N/A   Clear
3:35 AM 41.0 °F 32.5 °F 41.0 °F 100% 29.80 in 10.0 mi ESE 17.3 mph - N/A   Partly Cloudy
3:55 AM 41.0 °F 33.1 °F 39.2 °F 93% 29.81 in 10.0 mi ESE 15.0 mph 20.7 mph N/A   Mostly Cloudy
4:15 AM 41.0 °F 33.1 °F 39.2 °F 93% 29.81 in 10.0 mi ESE 15.0 mph 20.7 mph N/A   Scattered Clouds
4:35 AM 41.0 °F 34.3 °F 39.2 °F 93% 29.82 in 10.0 mi ESE 11.5 mph - N/A   Partly Cloudy
4:55 AM 41.0 °F 34.3 °F 39.2 °F 93% 29.81 in 10.0 mi East 11.5 mph - N/A   Partly Cloudy
5:15 AM 41.0 °F 33.5 °F 39.2 °F 93% 29.80 in 10.0 mi East 13.8 mph - N/A   Partly Cloudy
5:35 AM 41.0 °F 33.1 °F 39.2 °F 93% 29.78 in 10.0 mi East 15.0 mph - N/A   Clear
5:55 AM 41.0 °F 33.1 °F 39.2 °F 93% 29.77 in 10.0 mi East 15.0 mph - N/A   Clear
6:15 AM 42.8 °F 35.4 °F 39.2 °F 87% 29.78 in 6.0 mi ESE 15.0 mph 21.9 mph N/A   Mostly Cloudy
6:35 AM 41.0 °F 33.9 °F 41.0 °F 100% 29.79 in 7.0 mi ESE 12.7 mph - N/A   Overcast
6:55 AM 41.0 °F 33.9 °F 41.0 °F 100% 29.79 in 6.0 mi East 12.7 mph - N/A   Overcast
7:15 AM 41.0 °F 33.9 °F 41.0 °F 100% 29.79 in 10.0 mi East 12.7 mph 19.6 mph N/A   Overcast
7:35 AM 41.0 °F 33.9 °F 41.0 °F 100% 29.79 in 10.0 mi East 12.7 mph 17.3 mph N/A   Mostly Cloudy
7:55 AM 41.0 °F 33.1 °F 41.0 °F 100% 29.77 in 10.0 mi East 15.0 mph 20.7 mph N/A   Scattered Clouds
8:15 AM 41.0 °F 33.1 °F 41.0 °F 100% 29.76 in 10.0 mi ESE 15.0 mph 20.7 mph N/A   Clear
8:35 AM 44.6 °F 38.8 °F 41.0 °F 87% 29.76 in 10.0 mi SE 11.5 mph 17.3 mph N/A   Clear
8:55 AM 44.6 °F 39.2 °F 41.0 °F 87% 29.75 in 10.0 mi SE 10.4 mph 18.4 mph N/A   Clear
9:15 AM 46.4 °F 39.0 °F 41.0 °F 81% 29.75 in 10.0 mi SE 19.6 mph - N/A   Clear
9:35 AM 48.2 °F - 41.0 °F 76% 29.76 in 10.0 mi ESE 15.0 mph 21.9 mph N/A   Clear
9:55 AM 48.2 °F - 39.2 °F 71% 29.77 in 10.0 mi SE 17.3 mph 29.9 mph N/A   Mostly Cloudy
10:15 AM 48.2 °F - 37.4 °F 66% 29.77 in 10.0 mi SE 18.4 mph 31.1 mph N/A   Overcast
10:35 AM 50.0 °F - 39.2 °F 66% 29.76 in 10.0 mi SE 20.7 mph 32.2 mph N/A   Overcast
10:55 AM 53.6 °F - 39.2 °F 58% 29.75 in 10.0 mi ESE 19.6 mph 29.9 mph N/A   Partly Cloudy
11:15 AM 53.6 °F - 37.4 °F 54% 29.74 in 10.0 mi ESE 23.0 mph 32.2 mph N/A   Clear
11:35 AM 55.4 °F - 37.4 °F 51% 29.74 in 10.0 mi ESE 23.0 mph 33.4 mph N/A   Clear
11:55 AM 57.2 °F - 37.4 °F 48% 29.73 in 10.0 mi ESE 21.9 mph 29.9 mph N/A   Clear
12:15 PM 57.2 °F - 37.4 °F 48% 29.71 in 10.0 mi ESE 26.5 mph 35.7 mph N/A   Clear
12:35 PM 59.0 °F - 37.4 °F 45% 29.70 in 10.0 mi ESE 26.5 mph 34.5 mph N/A   Clear
12:55 PM 60.8 °F - 35.6 °F 39% 29.68 in 10.0 mi ESE 26.5 mph 38.0 mph N/A   Clear
1:15 PM 62.6 °F - 35.6 °F 37% 29.67 in 10.0 mi ESE 28.8 mph 38.0 mph N/A   Clear
1:35 PM 62.6 °F - 35.6 °F 37% 29.66 in 10.0 mi ESE 27.6 mph 38.0 mph N/A   Clear
1:55 PM 64.4 °F - 35.6 °F 34% 29.65 in 10.0 mi ESE 25.3 mph 40.3 mph N/A   Clear
2:15 PM 64.4 °F - 35.6 °F 34% 29.64 in 10.0 mi ESE 28.8 mph 39.1 mph N/A   Clear
2:35 PM 64.4 °F - 35.6 °F 34% 29.63 in 10.0 mi ESE 26.5 mph 41.4 mph N/A   Clear
2:55 PM 64.4 °F - 35.6 °F 34% 29.63 in 10.0 mi ESE 28.8 mph 43.7 mph N/A   Clear
3:15 PM 64.4 °F - 35.6 °F 34% 29.63 in 10.0 mi East 34.5 mph 42.6 mph N/A   Clear
3:35 PM 64.4 °F - 35.6 °F 34% 29.64 in 10.0 mi ESE 32.2 mph 42.6 mph N/A   Clear
3:55 PM 64.4 °F - 35.6 °F 34% 29.63 in 10.0 mi ESE 26.5 mph 39.1 mph N/A   Clear
4:15 PM 62.6 °F - 35.6 °F 37% 29.63 in 10.0 mi ESE 21.9 mph 36.8 mph N/A   Clear
4:35 PM 62.6 °F - 35.6 °F 37% 29.62 in 10.0 mi East 27.6 mph 35.7 mph N/A   Clear
4:55 PM 62.6 °F - 37.4 °F 39% 29.62 in 10.0 mi East 28.8 mph 42.6 mph N/A   Clear
5:15 PM 59.0 °F - 37.4 °F 45% 29.62 in 10.0 mi East 31.1 mph 39.1 mph N/A   Clear
5:35 PM 57.2 °F - 37.4 °F 48% 29.63 in 10.0 mi East 29.9 mph 39.1 mph N/A   Mostly Cloudy
5:55 PM 55.4 °F - 37.4 °F 51% 29.64 in 10.0 mi East 25.3 mph 38.0 mph N/A   Overcast
6:15 PM 55.4 °F - 37.4 °F 51% 29.65 in 10.0 mi East 26.5 mph 34.5 mph N/A   Overcast
6:35 PM 53.6 °F - 35.6 °F 51% 29.66 in 10.0 mi East 24.2 mph 34.5 mph N/A   Mostly Cloudy
6:55 PM 53.6 °F - 35.6 °F 51% 29.67 in 10.0 mi East 26.5 mph 32.2 mph N/A   Mostly Cloudy
7:15 PM 53.6 °F - 37.4 °F 54% 29.66 in 10.0 mi East 24.2 mph 29.9 mph N/A   Mostly Cloudy
7:35 PM 51.8 °F - 37.4 °F 58% 29.66 in 10.0 mi East 21.9 mph 29.9 mph N/A   Overcast
7:55 PM 50.0 °F - 35.6 °F 58% 29.66 in 10.0 mi East 21.9 mph 34.5 mph N/A   Overcast
8:15 PM 50.0 °F - 35.6 °F 58% 29.65 in 10.0 mi East 24.2 mph 35.7 mph N/A   Overcast
8:35 PM 48.2 °F - 35.6 °F 62% 29.66 in 10.0 mi East 19.6 mph 33.4 mph N/A   Overcast
8:55 PM 48.2 °F - 35.6 °F 62% 29.66 in 10.0 mi East 24.2 mph 29.9 mph N/A   Overcast
9:15 PM 48.2 °F - 35.6 °F 62% 29.66 in 10.0 mi East 26.5 mph 34.5 mph N/A   Overcast
9:35 PM 48.2 °F - 35.6 °F 62% 29.66 in 10.0 mi East 24.2 mph 31.1 mph N/A   Overcast
9:55 PM 48.2 °F - 35.6 °F 62% 29.66 in 10.0 mi East 31.1 mph 39.1 mph N/A   Overcast
10:15 PM 46.4 °F 36.9 °F 35.6 °F 66% 29.66 in 10.0 mi East 32.2 mph 41.4 mph N/A   Overcast
10:35 PM 46.4 °F 37.0 °F 35.6 °F 66% 29.65 in 10.0 mi East 31.1 mph 40.3 mph N/A   Overcast
10:55 PM 46.4 °F 37.0 °F 33.8 °F 62% 29.65 in 10.0 mi East 31.1 mph 38.0 mph N/A   Overcast
11:15 PM 46.4 °F 37.5 °F 35.6 °F 66% 29.65 in 10.0 mi East 27.6 mph 39.1 mph N/A   Overcast
11:35 PM 46.4 °F 37.2 °F 35.6 °F 66% 29.64 in 10.0 mi East 29.9 mph 38.0 mph N/A   Overcast
11:55 PM 46.4 °F 37.7 °F 35.6 °F 66% 29.64 in 10.0 mi ESE 26.5 mph 40.3 mph N/A   Mostly Cloudy